Location: Kernascl�den
(48.0062°N, 3.3198°W)
Time: 22:28:02
(UTC+00:00)

Cosmos 1943 - Pass Details

Date: 21 January 2021
Orbit: 834 x 849 km, 71.0° (Epoch: 03 March)

Event Time Altitude Azimuth Distance (km) Brightness Sun altitude
Rises 17:19:18 0° 331° (NNW) 3,419 6.4 -4.2°
Reaches altitude 10° 17:21:46 10° 331° (NNW) 2,478 5.7 -4.6°
Maximum altitude 17:27:27 84° 245° (WSW) 854 3.4 -5.5°
Drops below altitude 10° 17:33:06 10° 157° (SSE) 2,451 5.6 -6.3°
Sets 17:35:31 0° 157° (SSE) 3,379 6.3 -6.7°
